Home   Weather   35°19'N, 81°11'W   Past weeks
Flag for USA

Past Weather in 35°19'N, 81°11'W, USA — Yesterday and Last 2 Weeks

Now
72 °F

Sunny.


Feels Like: 77 °F
Forecast: 79 / 54 °F
Wind: 5 mph from North

Location: Gastonia Municipal Airport

Current Time: Oct 14, 2019 at 12:18:39 pm

Latest Report: Oct 14, 2019 at 11:54 am


Visibility: 10 mi

Pressure: 30.10 "Hg

Humidity: 48%

Dew Point: 51 °F

Location of 35°19'N, 81°11'WLocation

Past Weather in 35°19'N, 81°11'W — Graph

°F

35°19'N, 81°11'W Temperature Yesterday

Maximum temperature yesterday: 68 °F (at 1:54 pm)
Minimum temperature yesterday: 62 °F (at 5:54 am)
Average temperature yesterday: 66 °F

High & Low Weather Summary for the Past Weeks

 TemperatureHumidityPressure
High98 °F (Oct 2, 3:54 pm)91% (Oct 13, 12:10 pm)30.29 "Hg (Oct 13, 12:10 pm)
Low52 °F (Oct 11, 7:54 am)26% (Oct 3, 2:54 pm)29.91 "Hg (Oct 2, 5:54 pm)
Average72 °F68%30.09 "Hg
* Reported Sep 29 10:54 am — Oct 14 10:54 am, 35°19'N, 81°11'W. Weather by CustomWeather, © 2019

Note: Actual official high and low records may vary slightly from our data, if they occured in-between our weather recording intervals... More about our weather records

Advertising

35°19'N, 81°11'W Weather History for the Previous 24 Hours

Scroll right to see more
 ConditionsComfort  
Time TempWeatherWind HumidityBarometerVisibility
10:54 am
Mon, Oct 14
68 °FSunny.No wind61%30.10 "Hg10 mi
10:11 am65 °FScattered clouds.No wind78%30.11 "Hg10 mi
10:02 am65 °FPartly sunny.3 mph78%30.11 "Hg10 mi
9:29 am62 °FFog.5 mph90%30.10 "Hg4 mi
8:54 am62 °FFog.No wind90%30.08 "Hg1 mi
7:54 am61 °FFog.No wind90%30.05 "Hg0 mi
7:41 am60 °FFog.No wind90%30.06 "Hg0 mi
7:16 am59 °FFog.No wind90%30.05 "Hg1 mi
7:07 am59 °FFog.No wind90%30.05 "Hg0 mi
6:57 am60 °FFog.No wind90%30.04 "Hg1 mi
6:42 am61 °FFog.No wind87%30.04 "Hg3 mi
6:32 am62 °FFog.No wind86%30.03 "Hg3 mi
5:54 am62 °FFog.No wind90%30.02 "Hg6 mi
4:54 am62 °FFog.No wind86%30.00 "Hg6 mi
4:01 am60 °FFog.No wind90%30.01 "Hg5 mi
3:21 am61 °FFog.3 mph87%30.01 "Hg5 mi
3:12 am60 °FFog.3 mph90%30.01 "Hg2 mi
3:04 am60 °FFog.3 mph90%30.01 "Hg1 mi
2:06 am61 °FFog.3 mph90%30.03 "Hg3 mi
1:35 am62 °FFog.No wind86%30.01 "Hg1 mi
1:19 am62 °FFog.No wind90%30.02 "Hg1 mi
12:54 am64 °FClear.No wind87%30.01 "Hg10 mi
11:54 pm
Sun, Oct 13
65 °FClear.No wind87%30.01 "Hg10 mi
10:54 pm66 °FPassing clouds.5 mph87%30.01 "Hg10 mi
9:54 pm67 °FPassing clouds.No wind87%30.00 "Hg10 mi
9:09 pm68 °FRain. Fog.7 mph87%30.02 "Hg5 mi
9:01 pm68 °FLight rain. Mostly cloudy.3 mph87%30.03 "Hg7 mi
7:54 pm68 °FFog.3 mph87%29.99 "Hg5 mi
7:19 pm68 °FFog.5 mph87%29.99 "Hg6 mi
7:07 pm68 °FFog.3 mph87%30.00 "Hg6 mi
6:42 pm68 °FFog.5 mph87%30.00 "Hg5 mi
5:54 pm68 °FFog.3 mph87%29.99 "Hg6 mi
4:57 pm68 °FLight rain. Fog.3 mph87%30.01 "Hg3 mi
3:54 pm68 °FFog.5 mph87%29.99 "Hg6 mi
3:38 pm68 °FFog.3 mph87%30.00 "Hg6 mi
3:23 pm68 °FLight rain. Fog.6 mph87%30.00 "Hg2 mi
3:10 pm68 °FLight rain. Fog.3 mph87%30.01 "Hg1 mi
3:04 pm68 °FRain. Fog.3 mph87%30.00 "Hg2 mi
2:32 pm68 °FRain. Fog.6 mph87%30.01 "Hg2 mi
1:54 pm68 °FLight rain. Fog.5 mph87%30.01 "Hg5 mi
1:01 pm66 °FFog.No wind87%30.05 "Hg6 mi
12:21 pm65 °FLight rain. Fog.No wind91%30.06 "Hg3 mi
12:10 pm65 °FHeavy rain. Fog.5 mph91%30.05 "Hg1 mi
12:02 pm65 °FRain. Fog.3 mph87%30.07 "Hg2 mi
Weather by CustomWeather, © 2019

See weather overview